PERSEUS-M2

Last updated on Sat Aug 30 2025 00:03:48 GMT+0000 (Coordinated Universal Time)

1 40037U 14033AD 25241.28349164 .00002042 00000+0 19692-3 0 9993 2 40037 97.9579 181.8559 0012060 179.9729 180.1494 14.93995284607174
UTC large
Height (km)
Speed (km/s)
/
Latitude / Longitude
Inclination (degrees)
Orbital Period (minutes)
Azimuth
Elevation
Range (km)
Doppler Factor

Next 0 passes for location: London (51.5072 / 0.1276)

Sorry there are no passes over London.